Home   Weather   Metz   Past weeks

Flag for France Past Weather in Metz, Lorraine, France — Yesterday and Last 2 Weeks

Now
48 °F

Mostly cloudy.


Feels Like: 48 °F
Forecast: 37 / 53 °F
Wind: 2 mph from North

Location: Metz-Nancy-Lorraine

Current Time: Apr 26, 2017 at 6:04:13 pm

Latest Report: Apr 26, 2017 at 5:30 pm


Visibility: N/A

Pressure: 29.89 "Hg

Humidity: 43%

Dew Point: 27 °F

Location of MetzLocation

Past Weather in Metz — Graph

°F

Metz Temperature Yesterday

Maximum temperature yesterday: 50 °F (at 12:00 am)
Minimum temperature yesterday: 41 °F (at 3:30 am)
Average temperature yesterday: 45 °F

High & Low Weather Summary for the Past Weeks

 TemperatureHumidityPressure
High64 °F (Apr 12, 4:30 pm)94% (Apr 15, 10:00 pm)30.60 "Hg (Apr 15, 10:00 pm)
Low28 °F (Apr 20, 2:30 am)26% (Apr 24, 5:30 pm)29.77 "Hg (Apr 25, 2:30 am)
Average46 °F65%30.16 "Hg
* Reported Apr 11 4:00 pm — Apr 26 4:30 pm, Metz, Weather by CustomWeather, © 2017

Note: Actual official high and low records may vary slightly from our data, if they occured in-between our weather recording intervals... More about our weather records

Advertising

Metz Weather History for the Previous 24 Hours

Scroll right to see more
 ConditionsComfort  
Time TempWeatherWind HumidityBarometerVisibility
4:30 pm
Wed, Apr 26
46 °FPassing clouds.7 mph46%29.89 "HgN/A
4:00 pm46 °FPassing clouds.8 mph53%29.89 "HgN/A
3:30 pm46 °FOvercast.5 mph46%29.89 "HgN/A
3:00 pm46 °FMore clouds than sun.3 mph50%29.89 "HgN/A
2:30 pm46 °FMostly cloudy.5 mph46%29.89 "HgN/A
2:00 pm48 °FBroken clouds.5 mph46%29.89 "HgN/A
1:30 pm46 °FBroken clouds.6 mph50%29.86 "HgN/A
1:00 pm48 °FMostly cloudy.7 mph46%29.86 "HgN/A
12:30 pm48 °FPassing clouds.6 mph50%29.86 "HgN/A
11:30 am46 °FPassing clouds.3 mph57%29.86 "HgN/A
11:00 am46 °FPassing clouds.6 mph57%29.86 "HgN/A
10:30 am45 °FPassing clouds.6 mph61%29.86 "HgN/A
10:00 am43 °FMostly cloudy.6 mph66%29.86 "HgN/A
9:30 am43 °FPassing clouds.7 mph71%29.86 "HgN/A
9:00 am41 °FPartly sunny.5 mph76%29.86 "HgN/A
8:30 am39 °FPartly sunny.3 mph81%29.86 "HgN/A
8:00 am37 °FPartly sunny.5 mph87%29.86 "HgN/A
7:30 am37 °FPartly sunny.2 mph93%29.83 "HgN/A
7:00 am37 °FSunny.No wind87%29.83 "Hg10 mi
6:30 am37 °FSunny.2 mph87%29.83 "Hg10 mi
6:00 am37 °FClear.3 mph93%29.83 "Hg10 mi
5:30 am37 °FClear.5 mph93%29.83 "Hg10 mi
5:00 am37 °FClear.6 mph93%29.83 "Hg10 mi
4:30 am37 °FOvercast.6 mph93%29.83 "HgN/A
4:00 am39 °FMostly cloudy.5 mph87%29.83 "HgN/A
3:30 am39 °FLight rain. Overcast.7 mph87%29.83 "HgN/A
3:00 am41 °FOvercast.6 mph76%29.83 "HgN/A
2:30 am41 °FMostly cloudy.2 mph76%29.83 "HgN/A
2:00 am41 °FOvercast.3 mph76%29.83 "HgN/A
1:30 am41 °FMostly cloudy.6 mph76%29.83 "HgN/A
1:00 am41 °FMostly cloudy.7 mph76%29.83 "HgN/A
12:30 am41 °FMostly cloudy.6 mph76%29.80 "HgN/A
12:00 am41 °FMostly cloudy.3 mph70%29.80 "HgN/A
11:30 pm
Tue, Apr 25
43 °FClear.2 mph61%29.80 "Hg10 mi
11:00 pm43 °FPassing clouds.5 mph66%29.80 "HgN/A
10:30 pm41 °FClear.5 mph70%29.80 "Hg10 mi
9:30 pm41 °FPassing clouds.7 mph70%29.80 "HgN/A
9:00 pm43 °FPassing clouds.8 mph66%29.80 "HgN/A
8:30 pm45 °FSunny.9 mph61%29.80 "Hg10 mi
8:00 pm46 °FSunny.2 mph50%29.80 "Hg10 mi
7:30 pm46 °FSunny.2 mph50%29.80 "Hg10 mi
7:00 pm46 °FSunny.3 mph50%29.80 "Hg10 mi
6:30 pm46 °FSunny.6 mph53%29.80 "Hg10 mi
6:00 pm46 °FPassing clouds.8 mph53%29.80 "HgN/A
Weather by CustomWeather, © 2017

See weather overviewHow to use our weather pages